RH
75 74 68 63 57 61 72 89 83 77 82 77 77 83 86 80 82 80 79 84 81 87 99 99 95 94 85 81 76 73 71 66 62 62 65 72 89 96 99 92 88 88 96
76 52 46 46 41 50 73 83 85 78 82 79 78 76 96 98 96 88 85 85 98 97 100 100 92 79 81 80 75 70 68 64 59 52 52 76 88 97 99 96 93 93 97
54 43 39 39 36 44 67 79 89 89 87 99 98 98 98 100 99 99 99 100 100 99 100 100 99 95 82 75 69 63 56 50 47 46 46 50 65 83 95 93 95 98 100
60 45 42 44 44 52 66 78 87 94 92 93 98 88 95 100 100 98 99 100 84 100 99 97 89 84 78 67 56 45 41 42 44 44 44 44 45 47 50 68 82 91 90
69 47 41 57 59 55 59 76 79 86 92 80 88 95 100 100 100 96 97 88 83 86 83 84 82 74 55 39 33 29 27 24 22 20 18 17 16 16 17 19 23 29 38
60 41 39 43 57 61 67 81 84 82 88 88 81 83 88 98 98 95 94 93 86 91 92 84 71 53 41 36 34 32 27 20 18 15 14 12 12 12 11 11 10 11 11
48 40 37 40 48 65 72 81 86 90 94 89 86 87 94 100 100 95 97 96 96 93 87 81 67 57 51 43 37 29 23 20 18 15 14 13 12 11 9 9 9 8 9
57 49 42 40 35 59 67 67 66 68 81 88 84 90 100 100 100 100 100 97 93 88 83 84 76 70 63 49 35 28 20 18 16 15 12 9 8 9 7 4 8 8 6
69 60 57 50 46 43 47 57 64 62 66 79 86 90 97 99 99 99 100 99 98 94 91 88 88 81 71 57 40 29 20 16 14 11 9 6 8 5 3 6 5 7 11
71 68 69 68 66 57 49 51 52 56 61 65 80 84 82 84 100 100 99 100 99 96 94 90 91 88 76 63 45 30 20 14 10 5 4 6 4 3 4 8 12 14 20
55 66 70 67 66 61 51 47 52 50 48 56 67 71 85 86 84 81 98 98 100 99 95 92 89 90 81 67 48 32 20 9 4 3 4 3 3 6 11 14 14 19 29
69 74 76 68 69 65 50 41 38 44 49 47 51 66 73 87 86 84 82 97 100 100 100 94 90 90 81 69 51 34 15 5 3 3 4 4 8 14 14 12 17 28 41
70 78 76 73 72 71 70 63 52 43 44 48 52 62 66 72 92 87 82 77 93 99 100 98 94 90 84 70 51 30 11 6 7 5 6 15 22 14 12 18 16 35 46
77 79 77 76 78 72 68 68 70 66 55 55 54 54 66 74 73 89 88 83 92 100 99 94 94 93 87 72 48 25 11 15 9 11 22 28 22 22 22 17 19 41 47
78 79 70 67 79 74 70 67 67 66 66 57 58 66 65 67 73 71 75 86 83 95 99 98 90 92 86 69 44 22 13 18 22 14 27 30 29 26 18 20 40 47 55
79 73 76 70 80 83 78 76 76 75 71 67 59 58 65 69 70 70 70 71 81 87 92 91 93 87 85 66 40 24 16 17 38 25 35 35 30 14 9 26 38 47 59
78 75 76 78 76 80 83 80 81 83 79 75 71 66 63 62 56 53 57 64 75 89 84 88 90 93 79 58 40 29 28 52 37 42 52 32 32 20 5 7 14 18 39
78 82 81 77 74 73 77 80 81 84 85 84 76 69 62 55 45 33 27 39 69 80 73 58 65 76 75 64 46 33 49 44 60 59 54 30 38 26 4 5 4 7 7
65 76 77 74 72 74 82 90 92 94 98 91 90 92 62 51 42 31 24 25 32 31 26 28 34 60 73 61 58 52 51 56 99 76 45 54 49 32 9 10 11 8 6
59 61 70 80 84 90 94 93 98 98 98 99 98 96 78 56 51 44 47 78 83 62 51 46 47 67 65 61 69 48 50 71 88 69 44 66 63 46 17 21 18 14 8
70 74 73 75 83 85 89 92 97 99 99 100 98 97 92 67 56 57 91 100 97 90 83 57 50 60 75 80 72 58 67 67 73 67 82 74 70 61 61 39 57 43 17
82 77 83 82 82 90 100 100 100 100 99 100 95 93 81 65 64 76 97 96 96 96 88 72 44 49 58 56 79 51 60 81 78 66 97 85 74 70 62 92 36 42 71
82 84 85 90 90 84 86 98 100 100 98 98 97 96 87 87 90 93 98 97 95 68 58 56 45 41 37 35 34 47 60 73 79 54 90 86 89 74 47 53 30 22 30
89 90 86 84 83 91 99 99 100 100 99 98 95 94 94 93 95 97 96 96 96 89 51 46 47 41 36 36 32 30 60 64 36 48 84 91 80 72 41 34 26 18 14
91 89 100 98 87 91 99 100 98 96 96 96 96 97 98 98 96 92 47 37 61 47 37 38 33 30 26 18 22 36 46 58 40 41 79 70 63 76 66 58 29 22 17
88 94 96 95 94 97 98 96 97 98 98 99 99 96 96 96 87 22 15 34 41 33 23 17 7 6 7 21 37 52 48 40 27 57 71 61 60 83 88 53 35 25 22
Wind_Speed
12 12 12 12 11 10 11 10 9 10 10 9 9 8 9 7 7 6 5 5 5 4 5 7 7 7 6 7 7 9 10 12 14 14 14 13 10 11 12 13 14 14 15
11 11 10 9 10 10 10 9 10 9 9 9 6 8 6 9 9 9 9 9 11 11 10 9 9 11 10 11 10 11 13 15 15 16 16 15 14 10 10 11 14 15 15
8 9 10 8 8 8 9 9 9 9 9 6 8 9 10 11 11 11 10 12 12 10 10 12 9 9 10 11 13 14 15 15 15 13 12 13 14 16 15 14 13 14 13
8 8 9 9 6 6 6 7 8 9 10 11 11 9 12 10 11 10 11 12 9 12 12 12 11 9 10 11 12 12 10 10 9 8 7 6 7 8 10 13 17 19 20
9 9 9 9 7 6 6 7 6 7 9 10 11 12 11 12 14 12 13 12 11 11 12 9 8 8 6 5 4 4 4 4 5 4 4 4 4 4 6 8 10 13 16
13 11 10 10 9 8 8 8 7 7 9 13 14 13 13 16 17 14 14 12 11 11 10 6 5 5 4 4 3 3 3 3 3 1 2 2 3 4 5 6 7 8 10
14 13 12 10 10 10 11 10 10 9 11 13 14 14 14 16 16 16 16 13 12 12 8 8 7 6 5 4 4 4 5 4 4 3 3 3 5 5 6 7 7 7 8
13 12 13 12 13 13 13 14 13 12 13 16 17 17 13 13 16 16 14 14 13 12 12 10 8 7 6 6 6 6 7 6 7 6 6 8 7 8 8 8 7 10 12
11 11 12 12 11 12 13 14 14 13 14 17 21 15 8 9 18 13 15 16 16 14 13 11 10 9 7 7 8 8 7 8 8 7 7 8 8 9 9 9 12 14 17
10 11 9 10 11 13 13 13 13 14 15 19 24 26 20 13 13 13 18 19 20 18 16 15 15 13 11 9 9 8 7 8 9 10 10 10 10 10 9 9 11 16 17
11 8 10 10 11 12 12 13 13 14 15 19 22 28 30 20 18 14 20 25 24 22 21 18 17 16 13 10 9 8 8 8 8 8 7 7 8 8 9 11 15 18 16
6 7 9 11 9 9 10 11 13 15 15 17 22 26 31 29 26 22 16 24 25 24 24 22 20 17 14 11 10 9 7 6 6 7 7 7 6 7 9 11 15 16 14
6 8 10 11 11 10 9 10 11 13 15 17 18 24 27 30 32 25 24 21 25 25 24 24 21 19 16 12 11 10 5 5 4 4 5 5 5 7 8 11 14 16 13
8 10 11 12 11 9 10 10 12 13 13 15 17 20 23 26 27 31 29 27 16 22 26 25 25 21 17 13 12 10 8 4 4 4 3 3 3 5 6 9 14 15 15
9 10 11 12 12 12 12 11 14 16 16 15 16 18 19 22 25 27 28 28 28 18 21 26 22 24 19 15 13 10 8 5 4 4 3 2 2 5 8 12 16 18 18
11 14 14 13 15 16 16 15 14 14 14 15 16 17 18 19 20 22 24 26 27 26 16 24 29 24 21 17 14 10 9 6 3 4 3 2 1 6 8 11 15 20 19
13 14 14 15 15 15 17 18 18 18 17 16 15 16 17 18 18 18 18 20 23 25 21 20 23 24 22 19 16 13 9 5 4 3 2 1 1 4 6 7 11 14 17
14 14 14 14 14 16 18 17 18 18 18 17 16 15 16 16 16 16 16 17 20 22 21 20 24 25 23 19 16 14 12 9 6 4 1 2 3 5 7 7 8 10 11
13 15 14 12 13 15 18 18 18 18 16 17 18 16 15 15 14 14 14 13 12 14 15 18 21 25 23 21 19 16 14 11 9 7 0 2 3 6 7 7 8 9 10
16 16 16 16 14 15 16 18 18 21 19 18 19 17 16 17 17 16 16 16 15 14 14 17 19 22 22 23 19 17 16 15 13 9 4 4 2 6 7 7 8 9 9
17 17 15 13 12 12 14 15 18 21 15 16 17 17 18 19 18 17 16 17 17 14 12 16 19 21 21 23 20 18 15 16 14 9 8 6 4 5 7 8 9 9 9
17 14 11 10 11 11 11 14 18 21 15 15 15 16 16 16 16 18 18 17 16 9 10 18 20 19 19 20 18 17 18 17 14 14 9 7 5 5 6 6 6 8 11
10 9 8 9 8 11 11 15 15 14 13 13 14 15 16 16 17 17 17 15 12 11 14 16 16 17 18 19 18 19 18 15 12 14 13 9 6 5 5 5 5 5 7
7 7 6 6 10 12 11 12 13 12 11 12 12 14 16 18 19 19 16 15 14 12 16 19 18 16 15 16 18 18 18 18 15 16 15 10 10 7 5 3 4 5 5
7 9 7 8 8 9 9 10 9 9 10 11 13 15 17 16 14 9 8 11 14 16 18 18 16 14 15 16 19 19 19 19 17 18 18 10 12 9 6 2 3 5 5
8 7 7 7 8 9 9 8 7 8 9 11 12 12 10 9 9 8 9 10 11 10 10 12 11 12 13 18 19 18 15 16 14 15 17 13 13 11 4 5 4 4 4
Wind_Direction
238 245 254 258 261 261 257 249 239 255 258 258 267 266 258 230 190 197 207 207 216 211 195 231 228 227 249 259 286 289 283 284 286 283 280 272 258 252 251 251 255 256 251
241 251 257 267 275 268 263 249 246 246 248 245 244 240 226 204 195 202 214 201 197 175 166 170 240 255 265 270 278 277 277 277 276 274 269 257 256 249 251 255 256 261 264
255 270 274 276 274 262 254 255 244 236 240 225 227 213 218 208 227 229 218 191 188 205 212 209 240 258 271 281 287 288 285 278 273 270 266 263 257 249 245 245 249 251 252
260 274 279 279 277 267 260 248 237 235 241 237 239 233 238 225 227 216 210 198 230 220 223 239 252 268 284 290 288 285 278 272 272 274 268 265 263 264 264 259 256 259 262
291 294 285 285 278 271 259 242 233 229 225 233 230 232 216 214 201 218 215 222 235 234 244 247 259 278 288 301 302 306 292 298 286 284 285 286 279 275 269 270 272 271 270
314 311 303 292 282 267 251 241 237 234 235 232 225 212 212 209 205 209 211 209 224 214 212 221 231 238 247 263 280 287 296 281 284 284 298 298 311 298 294 292 287 286 285
324 321 314 308 292 278 262 251 246 245 243 231 226 198 205 210 210 208 208 208 213 206 219 224 227 233 245 259 261 257 253 258 253 251 245 248 257 274 279 284 293 301 303
331 324 318 315 305 278 269 265 258 244 235 226 208 203 175 187 191 196 200 209 214 230 233 233 232 239 253 269 274 270 262 263 276 290 298 290 295 301 304 304 312 315 312
337 322 309 304 301 290 279 267 261 246 232 224 220 206 191 203 195 206 210 217 216 218 224 234 254 255 256 264 273 274 272 274 280 288 281 287 295 306 309 315 320 319 312
332 316 307 304 301 295 285 274 264 252 239 229 223 221 221 215 188 199 209 210 216 222 227 231 245 255 257 257 261 263 266 269 278 284 293 302 310 312 313 323 325 318 316
257 269 307 316 314 298 289 281 270 259 245 237 231 228 223 227 219 207 205 210 213 217 226 229 239 249 256 262 271 277 279 278 269 269 280 295 302 308 317 322 328 330 334
261 289 311 324 319 307 301 287 276 268 258 247 237 236 233 228 226 223 217 210 216 217 221 225 230 236 244 253 266 278 285 278 260 267 274 281 289 299 312 323 335 344 347
285 297 311 316 320 328 322 311 297 283 273 263 252 244 240 239 242 241 236 221 209 216 218 222 225 229 233 241 258 272 277 268 261 273 276 282 290 299 318 338 356 358 359
284 288 307 313 305 305 316 313 311 303 290 276 266 257 249 247 245 244 242 237 217 217 217 222 223 225 227 233 243 257 260 241 249 253 251 277 316 337 346 8 11 17 19
269 283 304 307 295 285 287 296 307 308 306 297 280 268 259 254 252 248 244 242 238 214 215 218 215 219 219 222 229 232 242 236 221 245 240 273 14 38 34 31 34 32 33
279 289 293 303 300 292 291 293 295 294 294 295 290 279 270 261 253 248 243 240 237 234 211 224 217 218 216 217 216 212 227 230 201 224 204 210 47 46 41 45 50 46 44
270 273 277 285 294 295 293 294 299 298 295 294 291 283 273 265 259 253 245 236 229 229 230 217 217 209 205 204 201 200 206 197 229 235 171 163 60 42 45 51 47 51 50
270 268 272 275 275 282 285 283 284 286 290 294 289 284 275 267 258 248 236 229 224 226 231 219 209 203 203 198 200 198 182 194 212 242 28 74 68 56 53 54 57 54 43
274 270 272 272 274 274 275 273 278 283 275 279 279 275 268 263 253 237 223 206 212 224 230 231 207 203 200 199 192 187 186 188 196 237 185 145 61 57 49 62 58 64 52
278 274 269 262 265 272 270 275 279 278 269 276 277 265 255 254 248 238 231 234 234 227 232 229 211 199 202 196 192 192 185 186 198 220 194 162 91 60 57 75 59 50 50
281 278 272 266 269 272 264 276 273 269 276 272 273 265 252 252 252 249 255 259 248 225 209 213 201 194 196 192 191 189 187 191 195 194 181 167 137 84 68 56 63 54 42
285 281 272 265 269 271 270 275 268 257 259 265 265 259 253 253 260 270 274 264 242 214 226 215 211 206 203 199 195 190 188 181 176 193 175 177 151 135 87 63 84 72 48
281 281 276 269 270 283 283 286 264 253 256 263 259 252 253 259 263 273 268 247 207 218 223 229 227 224 220 218 210 196 192 184 186 190 177 176 170 156 123 72 70 68 67
278 270 270 271 280 280 273 265 254 256 256 255 250 254 259 265 265 260 249 231 219 216 227 226 221 220 221 226 214 207 194 195 197 192 182 181 183 174 153 95 59 64 50
276 270 256 278 282 271 258 258 257 253 251 250 257 262 265 263 254 219 216 221 217 222 223 224 223 220 212 209 205 203 196 195 195 195 196 203 187 179 157 115 80 67 57
276 264 262 259 248 249 248 249 252 252 251 255 258 260 254 227 181 216 201 200 208 207 203 201 194 197 196 192 189 191 196 193 195 189 202 205 196 187 182 153 105 78 58